COSMOS 1892

Last updated on Thu Nov 21 2024 00:02:12 GMT+0000 (Coordinated Universal Time)

1 18421U 87088A 24325.36416246 .00036175 00000+0 77829-3 0 9992 2 18421 82.4879 97.7303 0007682 162.5957 197.5556 15.44442154 30682
UTC large
Height (km)
Speed (km/s)
/
Latitude / Longitude
Inclination (degrees)
Orbital Period (minutes)
Azimuth
Elevation
Range (km)
Doppler Factor

Next 0 passes for location: London (51.5072 / 0.1276)

Sorry there are no passes over London.